Year,Month,Day,Hour,Minute,Value (Times are PST for temperature in C)
2018,05,13,00,00,12.90
2018,05,13,00,01,12.90
2018,05,13,00,02,12.90
2018,05,13,00,03,12.90
2018,05,13,00,04,12.90
2018,05,13,00,05,12.80
2018,05,13,00,06,12.80
2018,05,13,00,07,12.80
2018,05,13,00,08,12.80
2018,05,13,00,09,12.80
2018,05,13,00,10,12.80
2018,05,13,00,11,12.70
2018,05,13,00,12,12.70
2018,05,13,00,13,12.70
2018,05,13,00,14,12.70
2018,05,13,00,15,12.70
2018,05,13,00,16,12.70
2018,05,13,00,17,12.70
2018,05,13,00,18,12.70
2018,05,13,00,19,12.60
2018,05,13,00,20,12.60
2018,05,13,00,21,12.60
2018,05,13,00,22,12.60
2018,05,13,00,23,12.60
2018,05,13,00,24,12.60
2018,05,13,00,25,12.60
2018,05,13,00,26,12.60
2018,05,13,00,27,12.60
2018,05,13,00,28,12.50
2018,05,13,00,29,12.50
2018,05,13,00,30,12.50
2018,05,13,00,31,12.50
2018,05,13,00,32,12.40
2018,05,13,00,33,12.40
2018,05,13,00,34,12.40
2018,05,13,00,35,12.40
2018,05,13,00,36,12.40
2018,05,13,00,37,12.40
2018,05,13,00,38,12.40
2018,05,13,00,39,12.40
2018,05,13,00,40,12.40
2018,05,13,00,41,12.40
2018,05,13,00,42,12.40
2018,05,13,00,43,12.30
2018,05,13,00,44,12.30
2018,05,13,00,45,12.30
2018,05,13,00,46,12.30
2018,05,13,00,47,12.30
2018,05,13,00,48,12.30
2018,05,13,00,49,12.30
2018,05,13,00,50,12.30
2018,05,13,00,51,12.30
2018,05,13,00,52,12.30
2018,05,13,00,53,12.30
2018,05,13,00,54,12.30
2018,05,13,00,55,12.30
2018,05,13,00,56,12.30
2018,05,13,00,57,12.30
2018,05,13,00,58,12.30
2018,05,13,00,59,12.20
2018,05,13,01,00,12.20
2018,05,13,01,01,12.20
2018,05,13,01,02,12.20
2018,05,13,01,03,12.20
2018,05,13,01,04,12.20
2018,05,13,01,05,12.20
2018,05,13,01,06,12.20
2018,05,13,01,07,12.20
2018,05,13,01,08,12.20
2018,05,13,01,09,12.20
2018,05,13,01,10,12.20
2018,05,13,01,11,12.10
2018,05,13,01,12,12.10
2018,05,13,01,13,12.10
2018,05,13,01,14,12.10
2018,05,13,01,15,12.10
2018,05,13,01,16,12.10
2018,05,13,01,17,12.10
2018,05,13,01,18,12.10
2018,05,13,01,19,12.10
2018,05,13,01,20,12.10
2018,05,13,01,21,12.10
2018,05,13,01,22,12.20
2018,05,13,01,23,12.20
2018,05,13,01,24,12.10
2018,05,13,01,25,12.10
2018,05,13,01,26,12.10
2018,05,13,01,27,12.00
2018,05,13,01,28,12.00
2018,05,13,01,29,12.00
2018,05,13,01,30,11.90
2018,05,13,01,31,11.90
2018,05,13,01,32,11.90
2018,05,13,01,33,11.90
2018,05,13,01,34,11.90
2018,05,13,01,35,11.90
2018,05,13,01,36,11.80
2018,05,13,01,37,11.80
2018,05,13,01,38,11.80
2018,05,13,01,39,11.80
2018,05,13,01,40,11.80
2018,05,13,01,41,11.80
2018,05,13,01,42,11.80
2018,05,13,01,43,11.80
2018,05,13,01,44,11.80
2018,05,13,01,45,11.80
2018,05,13,01,46,11.70
2018,05,13,01,47,11.70
2018,05,13,01,48,11.70
2018,05,13,01,49,11.70
2018,05,13,01,50,11.70
2018,05,13,01,51,11.70
2018,05,13,01,52,11.70
2018,05,13,01,53,11.70
2018,05,13,01,54,11.70
2018,05,13,01,55,11.70
2018,05,13,01,56,11.70
2018,05,13,01,57,11.70
2018,05,13,01,58,11.60
2018,05,13,01,59,11.60
2018,05,13,02,00,11.60
2018,05,13,02,01,11.60
2018,05,13,02,02,11.60
2018,05,13,02,03,11.60
2018,05,13,02,04,11.60
2018,05,13,02,05,11.60
2018,05,13,02,06,11.50
2018,05,13,02,07,11.50
2018,05,13,02,08,11.50
2018,05,13,02,09,11.50
2018,05,13,02,10,11.50
2018,05,13,02,11,11.50
2018,05,13,02,12,11.50
2018,05,13,02,13,11.40
2018,05,13,02,14,11.40
2018,05,13,02,15,11.40
2018,05,13,02,16,11.40
2018,05,13,02,17,11.40
2018,05,13,02,18,11.40
2018,05,13,02,19,11.40
2018,05,13,02,20,11.40
2018,05,13,02,21,11.30
2018,05,13,02,22,11.30
2018,05,13,02,23,11.30
2018,05,13,02,24,11.30
2018,05,13,02,25,11.30
2018,05,13,02,26,11.30
2018,05,13,02,27,11.20
2018,05,13,02,28,11.20
2018,05,13,02,29,11.20
2018,05,13,02,30,11.20
2018,05,13,02,31,11.20
2018,05,13,02,32,11.20
2018,05,13,02,33,11.20
2018,05,13,02,34,11.20
2018,05,13,02,35,11.10
2018,05,13,02,36,11.10
2018,05,13,02,37,11.10
2018,05,13,02,38,11.10
2018,05,13,02,39,11.10
2018,05,13,02,40,11.10
2018,05,13,02,41,11.10
2018,05,13,02,42,11.10
2018,05,13,02,43,11.00
2018,05,13,02,44,11.00
2018,05,13,02,45,11.00
2018,05,13,02,46,10.90
2018,05,13,02,47,10.90
2018,05,13,02,48,10.90
2018,05,13,02,49,10.90
2018,05,13,02,50,10.90
2018,05,13,02,51,10.90
2018,05,13,02,52,10.80
2018,05,13,02,53,10.80
2018,05,13,02,54,10.80
2018,05,13,02,55,10.80
2018,05,13,02,56,10.80
2018,05,13,02,57,10.80
2018,05,13,02,58,10.80
2018,05,13,02,59,10.80
2018,05,13,03,00,10.80
2018,05,13,03,01,10.80
2018,05,13,03,02,10.80
2018,05,13,03,03,10.80
2018,05,13,03,04,10.80
2018,05,13,03,05,10.80
2018,05,13,03,06,10.80
2018,05,13,03,07,10.80
2018,05,13,03,08,10.80
2018,05,13,03,09,10.80
2018,05,13,03,10,10.80
2018,05,13,03,11,10.80
2018,05,13,03,12,10.70
2018,05,13,03,13,10.70
2018,05,13,03,14,10.70
2018,05,13,03,15,10.70
2018,05,13,03,16,10.70
2018,05,13,03,17,10.70
2018,05,13,03,18,10.70
2018,05,13,03,19,10.70
2018,05,13,03,20,10.70
2018,05,13,03,21,10.70
2018,05,13,03,22,10.70
2018,05,13,03,23,10.70
2018,05,13,03,24,10.70
2018,05,13,03,25,10.60
2018,05,13,03,26,10.60
2018,05,13,03,27,10.60
2018,05,13,03,28,10.60
2018,05,13,03,29,10.60
2018,05,13,03,30,10.60
2018,05,13,03,31,10.60
2018,05,13,03,32,10.60
2018,05,13,03,33,10.60
2018,05,13,03,34,10.60
2018,05,13,03,35,10.60
2018,05,13,03,36,10.60
2018,05,13,03,37,10.60
2018,05,13,03,38,10.60
2018,05,13,03,39,10.60
2018,05,13,03,40,10.60
2018,05,13,03,41,10.60
2018,05,13,03,42,10.60
2018,05,13,03,43,10.60
2018,05,13,03,44,10.60
2018,05,13,03,45,10.50
2018,05,13,03,46,10.50
2018,05,13,03,47,10.50
2018,05,13,03,48,10.40
2018,05,13,03,49,10.40
2018,05,13,03,50,10.40
2018,05,13,03,51,10.40
2018,05,13,03,52,10.40
2018,05,13,03,53,10.40
2018,05,13,03,54,10.40
2018,05,13,03,55,10.40
2018,05,13,03,56,10.30
2018,05,13,03,57,10.30
2018,05,13,03,58,10.30
2018,05,13,03,59,10.30
2018,05,13,04,00,10.30
2018,05,13,04,01,10.30
2018,05,13,04,02,10.30
2018,05,13,04,03,10.30
2018,05,13,04,04,10.30
2018,05,13,04,05,10.30
2018,05,13,04,06,10.30
2018,05,13,04,07,10.30
2018,05,13,04,08,10.20
2018,05,13,04,09,10.30
2018,05,13,04,10,10.30
2018,05,13,04,11,10.30
2018,05,13,04,12,10.30
2018,05,13,04,13,10.30
2018,05,13,04,14,10.30
2018,05,13,04,15,10.30
2018,05,13,04,16,10.20
2018,05,13,04,17,10.20
2018,05,13,04,18,10.20
2018,05,13,04,19,10.20
2018,05,13,04,20,10.20
2018,05,13,04,21,10.20
2018,05,13,04,22,10.20
2018,05,13,04,23,10.20
2018,05,13,04,24,10.20
2018,05,13,04,25,10.20
2018,05,13,04,26,10.20
2018,05,13,04,27,10.20
2018,05,13,04,28,10.20
2018,05,13,04,29,10.20
2018,05,13,04,30,10.20
2018,05,13,04,31,10.20
2018,05,13,04,32,10.20
2018,05,13,04,33,10.10
2018,05,13,04,34,10.10
2018,05,13,04,35,10.10
2018,05,13,04,36,10.10
2018,05,13,04,37,10.10
2018,05,13,04,38,10.20
2018,05,13,04,39,10.20
2018,05,13,04,40,10.20
2018,05,13,04,41,10.20
2018,05,13,04,42,10.20
2018,05,13,04,43,10.10
2018,05,13,04,44,10.10
2018,05,13,04,45,10.10
2018,05,13,04,46,10.10
2018,05,13,04,47,10.10
2018,05,13,04,48,10.10
2018,05,13,04,49,10.00
2018,05,13,04,50,10.00
2018,05,13,04,51,10.00
2018,05,13,04,52,10.00
2018,05,13,04,53,9.90
2018,05,13,04,54,9.90
2018,05,13,04,55,9.90
2018,05,13,04,56,9.90
2018,05,13,04,57,9.90
2018,05,13,04,58,9.90
2018,05,13,04,59,9.90
2018,05,13,05,00,9.90
2018,05,13,05,01,9.90
2018,05,13,05,02,9.90
2018,05,13,05,03,9.90
2018,05,13,05,04,9.90
2018,05,13,05,05,9.90
2018,05,13,05,06,9.90
2018,05,13,05,07,9.90
2018,05,13,05,08,9.90
2018,05,13,05,09,9.90
2018,05,13,05,10,9.90
2018,05,13,05,11,9.80
2018,05,13,05,12,9.80
2018,05,13,05,13,9.80
2018,05,13,05,14,9.80
2018,05,13,05,15,9.80
2018,05,13,05,16,9.70
2018,05,13,05,17,9.70
2018,05,13,05,18,9.70
2018,05,13,05,19,9.70
2018,05,13,05,20,9.70
2018,05,13,05,21,9.70
2018,05,13,05,22,9.70
2018,05,13,05,23,9.70
2018,05,13,05,24,9.70
2018,05,13,05,25,9.70
2018,05,13,05,26,9.60
2018,05,13,05,27,9.60
2018,05,13,05,28,9.60
2018,05,13,05,29,9.60
2018,05,13,05,30,9.60
2018,05,13,05,31,9.60
2018,05,13,05,32,9.60
2018,05,13,05,33,9.60
2018,05,13,05,34,9.60
2018,05,13,05,35,9.60
2018,05,13,05,36,9.60
2018,05,13,05,37,9.60
2018,05,13,05,38,9.60
2018,05,13,05,39,9.60
2018,05,13,05,40,9.60
2018,05,13,05,41,9.60
2018,05,13,05,42,9.60
2018,05,13,05,43,9.60
2018,05,13,05,44,9.50
2018,05,13,05,45,9.50
2018,05,13,05,46,9.50
2018,05,13,05,47,9.50
2018,05,13,05,48,9.40
2018,05,13,05,49,9.40
2018,05,13,05,50,9.40
2018,05,13,05,51,9.40
2018,05,13,05,52,9.40
2018,05,13,05,53,9.40
2018,05,13,05,54,9.40
2018,05,13,05,55,9.40
2018,05,13,05,56,9.40
2018,05,13,05,57,9.40
2018,05,13,05,58,9.40
2018,05,13,05,59,9.40
2018,05,13,06,00,9.40
2018,05,13,06,01,9.40
2018,05,13,06,02,9.40
2018,05,13,06,03,9.40
2018,05,13,06,04,9.40
2018,05,13,06,05,9.40
2018,05,13,06,06,9.40
2018,05,13,06,07,9.40
2018,05,13,06,08,9.40
2018,05,13,06,09,9.40
2018,05,13,06,10,9.50
2018,05,13,06,11,9.50
2018,05,13,06,12,9.50
2018,05,13,06,13,9.50
2018,05,13,06,14,9.50
2018,05,13,06,15,9.50
2018,05,13,06,16,9.50
2018,05,13,06,17,9.50
2018,05,13,06,18,9.60
2018,05,13,06,19,9.60
2018,05,13,06,20,9.60
2018,05,13,06,21,9.60
2018,05,13,06,22,9.60
2018,05,13,06,23,9.60
2018,05,13,06,24,9.60
2018,05,13,06,25,9.70
2018,05,13,06,26,9.70
2018,05,13,06,27,9.70
2018,05,13,06,28,9.70
2018,05,13,06,29,9.70
2018,05,13,06,30,9.70
2018,05,13,06,31,9.70
2018,05,13,06,32,9.70
2018,05,13,06,33,9.70
2018,05,13,06,34,9.70
2018,05,13,06,35,9.70
2018,05,13,06,36,9.70
2018,05,13,06,37,9.70
2018,05,13,06,38,9.70
2018,05,13,06,39,9.70
2018,05,13,06,40,9.70
2018,05,13,06,41,9.70
2018,05,13,06,42,9.70
2018,05,13,06,43,9.70
2018,05,13,06,44,9.70
2018,05,13,06,45,9.70
2018,05,13,06,46,9.70
2018,05,13,06,47,9.70
2018,05,13,06,48,9.70
2018,05,13,06,49,9.70
2018,05,13,06,50,9.70
2018,05,13,06,51,9.70
2018,05,13,06,52,9.70
2018,05,13,06,53,9.70
2018,05,13,06,54,9.70
2018,05,13,06,55,9.70
2018,05,13,06,56,9.80
2018,05,13,06,57,9.80
2018,05,13,06,58,9.80
2018,05,13,06,59,9.80
2018,05,13,07,00,9.80
2018,05,13,07,01,9.90
2018,05,13,07,02,9.90
2018,05,13,07,03,9.90
2018,05,13,07,04,9.90
2018,05,13,07,05,10.00
2018,05,13,07,06,10.00
2018,05,13,07,07,10.00
2018,05,13,07,08,10.00
2018,05,13,07,09,10.00
2018,05,13,07,10,10.10
2018,05,13,07,11,10.10
2018,05,13,07,12,10.10
2018,05,13,07,13,10.10
2018,05,13,07,14,10.10
2018,05,13,07,15,10.10
2018,05,13,07,16,10.20
2018,05,13,07,17,10.20
2018,05,13,07,18,10.20
2018,05,13,07,19,10.20
2018,05,13,07,20,10.30
2018,05,13,07,21,10.30
2018,05,13,07,22,10.30
2018,05,13,07,23,10.30
2018,05,13,07,24,10.30
2018,05,13,07,25,10.40
2018,05,13,07,26,10.40
2018,05,13,07,27,10.40
2018,05,13,07,28,10.50
2018,05,13,07,29,10.50
2018,05,13,07,30,10.60
2018,05,13,07,31,10.60
2018,05,13,07,32,10.70
2018,05,13,07,33,10.70
2018,05,13,07,34,10.70
2018,05,13,07,35,10.80
2018,05,13,07,36,10.80
2018,05,13,07,37,10.90
2018,05,13,07,38,10.90
2018,05,13,07,39,10.90
2018,05,13,07,40,11.00
2018,05,13,07,41,11.00
2018,05,13,07,42,11.10
2018,05,13,07,43,11.20
2018,05,13,07,44,11.30
2018,05,13,07,45,11.30
2018,05,13,07,46,11.40
2018,05,13,07,47,11.40
2018,05,13,07,48,11.50
2018,05,13,07,49,11.60
2018,05,13,07,50,11.70
2018,05,13,07,51,11.80
2018,05,13,07,52,11.90
2018,05,13,07,53,12.00
2018,05,13,07,54,12.20
2018,05,13,07,55,12.30
2018,05,13,07,56,12.40
2018,05,13,07,57,12.50
2018,05,13,07,58,12.60
2018,05,13,07,59,12.60
2018,05,13,08,00,12.70
2018,05,13,08,01,12.80
2018,05,13,08,02,12.90
2018,05,13,08,03,13.00
2018,05,13,08,04,13.10
2018,05,13,08,05,13.20
2018,05,13,08,06,13.30
2018,05,13,08,07,13.30
2018,05,13,08,08,13.40
2018,05,13,08,09,13.40
2018,05,13,08,10,13.40
2018,05,13,08,11,13.50
2018,05,13,08,12,13.50
2018,05,13,08,13,13.60
2018,05,13,08,14,13.70
2018,05,13,08,15,13.80
2018,05,13,08,16,13.80
2018,05,13,08,17,13.90
2018,05,13,08,18,14.00
2018,05,13,08,19,14.10
2018,05,13,08,20,14.20
2018,05,13,08,21,14.30
2018,05,13,08,22,14.30
2018,05,13,08,23,14.40
2018,05,13,08,24,14.50
2018,05,13,08,25,14.50
2018,05,13,08,26,14.60
2018,05,13,08,27,14.60
2018,05,13,08,28,14.70
2018,05,13,08,29,14.70
2018,05,13,08,30,14.80
2018,05,13,08,31,14.80
2018,05,13,08,32,14.90
2018,05,13,08,33,14.90
2018,05,13,08,34,15.00
2018,05,13,08,35,15.00
2018,05,13,08,36,15.10
2018,05,13,08,37,15.20
2018,05,13,08,38,15.20
2018,05,13,08,39,15.30
2018,05,13,08,40,15.30
2018,05,13,08,41,15.40
2018,05,13,08,42,15.40
2018,05,13,08,43,15.50
2018,05,13,08,44,15.50
2018,05,13,08,45,15.60
2018,05,13,08,46,15.60
2018,05,13,08,47,15.60
2018,05,13,08,48,15.70
2018,05,13,08,49,15.70
2018,05,13,08,50,15.80
2018,05,13,08,51,15.80
2018,05,13,08,52,15.90
2018,05,13,08,53,15.90
2018,05,13,08,54,15.90
2018,05,13,08,55,16.00
2018,05,13,08,56,16.00
2018,05,13,08,57,16.10
2018,05,13,08,58,16.10
2018,05,13,08,59,16.20
2018,05,13,09,00,16.20
2018,05,13,09,01,16.20
2018,05,13,09,02,16.20
2018,05,13,09,03,16.30
2018,05,13,09,04,16.30
2018,05,13,09,05,16.30
2018,05,13,09,06,16.30
2018,05,13,09,07,16.30
2018,05,13,09,08,16.30
2018,05,13,09,09,16.40
2018,05,13,09,10,16.40
2018,05,13,09,11,16.40
2018,05,13,09,12,16.50
2018,05,13,09,13,16.60
2018,05,13,09,14,16.60
2018,05,13,09,15,16.70
2018,05,13,09,16,16.80
2018,05,13,09,17,16.90
2018,05,13,09,18,16.90
2018,05,13,09,19,17.00
2018,05,13,09,20,17.10
2018,05,13,09,21,17.10
2018,05,13,09,22,17.20
2018,05,13,09,23,17.30
2018,05,13,09,24,17.40
2018,05,13,09,25,17.50
2018,05,13,09,26,17.50
2018,05,13,09,27,17.60
2018,05,13,09,28,17.70
2018,05,13,09,29,17.80
2018,05,13,09,30,17.80
2018,05,13,09,31,17.80
2018,05,13,09,32,17.90
2018,05,13,09,33,17.90
2018,05,13,09,34,18.00
2018,05,13,09,35,18.00
2018,05,13,09,36,18.10
2018,05,13,09,37,18.10
2018,05,13,09,38,18.10
2018,05,13,09,39,18.20
2018,05,13,09,40,18.20
2018,05,13,09,41,18.20
2018,05,13,09,42,18.30
2018,05,13,09,43,18.30
2018,05,13,09,44,18.40
2018,05,13,09,45,18.40
2018,05,13,09,46,18.40
2018,05,13,09,47,18.50
2018,05,13,09,48,18.60
2018,05,13,09,49,18.60
2018,05,13,09,50,18.70
2018,05,13,09,51,18.70
2018,05,13,09,52,18.80
2018,05,13,09,53,18.80
2018,05,13,09,54,18.80
2018,05,13,09,55,18.90
2018,05,13,09,56,19.00
2018,05,13,09,57,19.00
2018,05,13,09,58,19.10
2018,05,13,09,59,19.10
2018,05,13,10,00,19.20
2018,05,13,10,01,19.30
2018,05,13,10,02,19.30
2018,05,13,10,03,19.40
2018,05,13,10,04,19.40
2018,05,13,10,05,19.40
2018,05,13,10,06,19.50
2018,05,13,10,07,19.50
2018,05,13,10,08,19.50
2018,05,13,10,09,19.50
2018,05,13,10,10,19.50
2018,05,13,10,11,19.60
2018,05,13,10,12,19.60
2018,05,13,10,13,19.60
2018,05,13,10,14,19.60
2018,05,13,10,15,19.70
2018,05,13,10,16,19.70
2018,05,13,10,17,19.80
2018,05,13,10,18,19.80
2018,05,13,10,19,19.90
2018,05,13,10,20,20.00
2018,05,13,10,21,20.10
2018,05,13,10,22,20.20
2018,05,13,10,23,20.30
2018,05,13,10,24,20.40
2018,05,13,10,25,20.40
2018,05,13,10,26,20.50
2018,05,13,10,27,20.60
2018,05,13,10,28,20.60
2018,05,13,10,29,20.70
2018,05,13,10,30,20.70
2018,05,13,10,31,20.80
2018,05,13,10,32,20.80
2018,05,13,10,33,20.90
2018,05,13,10,34,21.00
2018,05,13,10,35,21.00
2018,05,13,10,36,21.10
2018,05,13,10,37,21.20
2018,05,13,10,38,21.20
2018,05,13,10,39,21.30
2018,05,13,10,40,21.30
2018,05,13,10,41,21.40
2018,05,13,10,42,21.40
2018,05,13,10,43,21.50
2018,05,13,10,44,21.50
2018,05,13,10,45,21.60
2018,05,13,10,46,21.70
2018,05,13,10,47,21.70
2018,05,13,10,48,21.80
2018,05,13,10,49,21.80
2018,05,13,10,50,21.80
2018,05,13,10,51,21.80
2018,05,13,10,52,21.80
2018,05,13,10,53,21.80
2018,05,13,10,54,21.80
2018,05,13,10,55,21.80
2018,05,13,10,56,21.80
2018,05,13,10,57,21.80
2018,05,13,10,58,21.80
2018,05,13,10,59,21.80
2018,05,13,11,00,21.80
2018,05,13,11,01,21.80
2018,05,13,11,02,21.90
2018,05,13,11,03,21.90
2018,05,13,11,04,21.90
2018,05,13,11,05,21.90
2018,05,13,11,06,21.80
2018,05,13,11,07,21.80
2018,05,13,11,08,21.70
2018,05,13,11,09,21.70
2018,05,13,11,10,21.60
2018,05,13,11,11,21.60
2018,05,13,11,12,21.60
2018,05,13,11,13,21.60
2018,05,13,11,14,21.60
2018,05,13,11,15,21.60
2018,05,13,11,16,21.60
2018,05,13,11,17,21.60
2018,05,13,11,18,21.60
2018,05,13,11,19,21.70
2018,05,13,11,20,21.80
2018,05,13,11,21,21.90
2018,05,13,11,22,21.90
2018,05,13,11,23,22.00
2018,05,13,11,24,22.10
2018,05,13,11,25,22.10
2018,05,13,11,26,22.10
2018,05,13,11,27,22.10
2018,05,13,11,28,22.10
2018,05,13,11,29,22.10
2018,05,13,11,30,22.10
2018,05,13,11,31,22.20
2018,05,13,11,32,22.20
2018,05,13,11,33,22.20
2018,05,13,11,34,22.20
2018,05,13,11,35,22.20
2018,05,13,11,36,22.20
2018,05,13,11,37,22.20
2018,05,13,11,38,22.20
2018,05,13,11,39,22.20
2018,05,13,11,40,22.20
2018,05,13,11,41,22.30
2018,05,13,11,42,22.30
2018,05,13,11,43,22.40
2018,05,13,11,44,22.40
2018,05,13,11,45,22.50
2018,05,13,11,46,22.50
2018,05,13,11,47,22.60
2018,05,13,11,48,22.60
2018,05,13,11,49,22.60
2018,05,13,11,50,22.60
2018,05,13,11,51,22.60
2018,05,13,11,52,22.60
2018,05,13,11,53,22.70
2018,05,13,11,54,22.70
2018,05,13,11,55,22.70
2018,05,13,11,56,22.70
2018,05,13,11,57,22.80
2018,05,13,11,58,22.80
2018,05,13,11,59,22.80
2018,05,13,12,00,22.80
2018,05,13,12,01,22.80
2018,05,13,12,02,22.80
2018,05,13,12,03,22.80
2018,05,13,12,04,22.90
2018,05,13,12,05,22.90
2018,05,13,12,06,23.00
2018,05,13,12,07,23.10
2018,05,13,12,08,23.20
2018,05,13,12,09,23.20
2018,05,13,12,10,23.20
2018,05,13,12,11,23.20
2018,05,13,12,12,23.30
2018,05,13,12,13,23.30
2018,05,13,12,14,23.30
2018,05,13,12,15,23.30
2018,05,13,12,16,23.30
2018,05,13,12,17,23.30
2018,05,13,12,18,23.30
2018,05,13,12,19,23.30
2018,05,13,12,20,23.40
2018,05,13,12,21,23.40
2018,05,13,12,22,23.50
2018,05,13,12,23,23.50
2018,05,13,12,24,23.60
2018,05,13,12,25,23.60
2018,05,13,12,26,23.70
2018,05,13,12,27,23.80
2018,05,13,12,28,23.80
2018,05,13,12,29,23.80
2018,05,13,12,30,23.80
2018,05,13,12,31,23.80
2018,05,13,12,32,23.90
2018,05,13,12,33,23.90
2018,05,13,12,34,23.90
2018,05,13,12,35,23.90
2018,05,13,12,36,23.90
2018,05,13,12,37,24.00
2018,05,13,12,38,24.00
2018,05,13,12,39,24.00
2018,05,13,12,40,24.10
2018,05,13,12,41,24.10
2018,05,13,12,42,24.10
2018,05,13,12,43,24.10
2018,05,13,12,44,24.10
2018,05,13,12,45,24.20
2018,05,13,12,46,24.30
2018,05,13,12,47,24.30
2018,05,13,12,48,24.30
2018,05,13,12,49,24.30
2018,05,13,12,50,24.40
2018,05,13,12,51,24.30
2018,05,13,12,52,24.30
2018,05,13,12,53,24.30
2018,05,13,12,54,24.30
2018,05,13,12,55,24.30
2018,05,13,12,56,24.30
2018,05,13,12,57,24.20
2018,05,13,12,58,24.20
2018,05,13,12,59,24.20
2018,05,13,13,00,24.20
2018,05,13,13,01,24.20
2018,05,13,13,02,24.20
2018,05,13,13,03,24.30
2018,05,13,13,04,24.30
2018,05,13,13,05,24.30
2018,05,13,13,06,24.30
2018,05,13,13,07,24.20
2018,05,13,13,08,24.10
2018,05,13,13,09,24.10
2018,05,13,13,10,24.20
2018,05,13,13,11,24.30
2018,05,13,13,12,24.50
2018,05,13,13,13,24.60
2018,05,13,13,14,24.70
2018,05,13,13,15,24.80
2018,05,13,13,16,24.80
2018,05,13,13,17,24.80
2018,05,13,13,18,24.80
2018,05,13,13,19,24.80
2018,05,13,13,20,24.80
2018,05,13,13,21,24.80
2018,05,13,13,22,24.90
2018,05,13,13,23,25.00
2018,05,13,13,24,25.20
2018,05,13,13,25,25.20
2018,05,13,13,26,25.20
2018,05,13,13,27,25.30
2018,05,13,13,28,25.40
2018,05,13,13,29,25.60
2018,05,13,13,30,25.80
2018,05,13,13,31,25.80
2018,05,13,13,32,25.90
2018,05,13,13,33,26.00
2018,05,13,13,34,26.10
2018,05,13,13,35,26.30
2018,05,13,13,36,26.40
2018,05,13,13,37,26.50
2018,05,13,13,38,26.60
2018,05,13,13,39,26.70
2018,05,13,13,40,26.80
2018,05,13,13,41,26.90
2018,05,13,13,42,26.90
2018,05,13,13,43,26.90
2018,05,13,13,44,26.90
2018,05,13,13,45,27.00
2018,05,13,13,46,27.10
2018,05,13,13,47,27.10
2018,05,13,13,48,27.10
2018,05,13,13,49,27.10
2018,05,13,13,50,27.20
2018,05,13,13,51,27.30
2018,05,13,13,52,27.20
2018,05,13,13,53,27.10
2018,05,13,13,54,27.10
2018,05,13,13,55,27.10
2018,05,13,13,56,27.20
2018,05,13,13,57,27.20
2018,05,13,13,58,27.30
2018,05,13,13,59,27.30
2018,05,13,14,00,27.50
2018,05,13,14,01,27.60
2018,05,13,14,02,27.70
2018,05,13,14,03,27.80
2018,05,13,14,04,27.90
2018,05,13,14,05,28.00
2018,05,13,14,06,28.10
2018,05,13,14,07,28.30
2018,05,13,14,08,28.40
2018,05,13,14,09,28.50
2018,05,13,14,10,28.60
2018,05,13,14,11,28.50
2018,05,13,14,12,28.50
2018,05,13,14,13,28.40
2018,05,13,14,14,28.20
2018,05,13,14,15,28.10
2018,05,13,14,16,28.00
2018,05,13,14,17,28.10
2018,05,13,14,18,28.10
2018,05,13,14,19,28.30
2018,05,13,14,20,28.40
2018,05,13,14,21,28.60
2018,05,13,14,22,28.80
2018,05,13,14,23,28.90
2018,05,13,14,24,29.00
2018,05,13,14,25,28.90
2018,05,13,14,26,28.90
2018,05,13,14,27,29.00
2018,05,13,14,28,29.10
2018,05,13,14,29,29.20
2018,05,13,14,30,29.30
2018,05,13,14,31,29.30
2018,05,13,14,32,29.20
2018,05,13,14,33,29.10
2018,05,13,14,34,28.90
2018,05,13,14,35,28.80
2018,05,13,14,36,28.70
2018,05,13,14,37,28.60
2018,05,13,14,38,28.60
2018,05,13,14,39,28.60
2018,05,13,14,40,28.60
2018,05,13,14,41,28.70
2018,05,13,14,42,28.70
2018,05,13,14,43,28.80
2018,05,13,14,44,28.80
2018,05,13,14,45,28.80
2018,05,13,14,46,28.80
2018,05,13,14,47,28.90
2018,05,13,14,48,29.00
2018,05,13,14,49,29.10
2018,05,13,14,50,29.10
2018,05,13,14,51,29.20
2018,05,13,14,52,29.10
2018,05,13,14,53,28.90
2018,05,13,14,54,28.80
2018,05,13,14,55,28.80
2018,05,13,14,56,28.80
2018,05,13,14,57,28.80
2018,05,13,14,58,28.90
2018,05,13,14,59,28.90
2018,05,13,15,00,29.00
2018,05,13,15,01,29.10
2018,05,13,15,02,29.10
2018,05,13,15,03,29.10
2018,05,13,15,04,29.10
2018,05,13,15,05,29.00
2018,05,13,15,06,28.90
2018,05,13,15,07,28.90
2018,05,13,15,08,28.90
2018,05,13,15,09,28.90
2018,05,13,15,10,28.90
2018,05,13,15,11,28.90
2018,05,13,15,12,28.90
2018,05,13,15,13,29.00
2018,05,13,15,14,29.00
2018,05,13,15,15,29.10
2018,05,13,15,16,29.10
2018,05,13,15,17,29.00
2018,05,13,15,18,29.00
2018,05,13,15,19,28.90
2018,05,13,15,20,28.80
2018,05,13,15,21,28.80
2018,05,13,15,22,28.80
2018,05,13,15,23,28.80
2018,05,13,15,24,28.70
2018,05,13,15,25,28.70
2018,05,13,15,26,28.70
2018,05,13,15,27,28.80
2018,05,13,15,28,28.80
2018,05,13,15,29,28.90
2018,05,13,15,30,28.90
2018,05,13,15,31,28.80
2018,05,13,15,32,28.80
2018,05,13,15,33,28.80
2018,05,13,15,34,28.70
2018,05,13,15,35,28.70
2018,05,13,15,36,28.60
2018,05,13,15,37,28.60
2018,05,13,15,38,28.50
2018,05,13,15,39,28.40
2018,05,13,15,40,28.20
2018,05,13,15,41,28.10
2018,05,13,15,42,27.90
2018,05,13,15,43,27.80
2018,05,13,15,44,27.80
2018,05,13,15,45,27.70
2018,05,13,15,46,27.70
2018,05,13,15,47,27.70
2018,05,13,15,48,27.70
2018,05,13,15,49,27.60
2018,05,13,15,50,27.50
2018,05,13,15,51,27.40
2018,05,13,15,52,27.30
2018,05,13,15,53,27.20
2018,05,13,15,54,27.20
2018,05,13,15,55,27.10
2018,05,13,15,56,27.10
2018,05,13,15,57,27.10
2018,05,13,15,58,27.10
2018,05,13,15,59,27.10
2018,05,13,16,00,27.10
2018,05,13,16,01,27.10
2018,05,13,16,02,27.10
2018,05,13,16,03,27.10
2018,05,13,16,04,27.10
2018,05,13,16,05,27.10
2018,05,13,16,06,27.20
2018,05,13,16,07,27.20
2018,05,13,16,08,27.20
2018,05,13,16,09,27.20
2018,05,13,16,10,27.10
2018,05,13,16,11,27.10
2018,05,13,16,12,27.10
2018,05,13,16,13,27.10
2018,05,13,16,14,27.10
2018,05,13,16,15,27.10
2018,05,13,16,16,27.10
2018,05,13,16,17,27.00
2018,05,13,16,18,27.10
2018,05,13,16,19,27.10
2018,05,13,16,20,27.10
2018,05,13,16,21,27.10
2018,05,13,16,22,27.10
2018,05,13,16,23,27.10
2018,05,13,16,24,27.10
2018,05,13,16,25,27.10
2018,05,13,16,26,27.10
2018,05,13,16,27,27.10
2018,05,13,16,28,27.10
2018,05,13,16,29,27.10
2018,05,13,16,30,27.10
2018,05,13,16,31,27.10
2018,05,13,16,32,27.10
2018,05,13,16,33,27.20
2018,05,13,16,34,27.20
2018,05,13,16,35,27.20
2018,05,13,16,36,27.20
2018,05,13,16,37,27.20
2018,05,13,16,38,27.20
2018,05,13,16,39,27.20
2018,05,13,16,40,27.20
2018,05,13,16,41,27.20
2018,05,13,16,42,27.20
2018,05,13,16,43,27.10
2018,05,13,16,44,27.10
2018,05,13,16,45,27.10
2018,05,13,16,46,27.10
2018,05,13,16,47,27.10
2018,05,13,16,48,27.10
2018,05,13,16,49,27.10
2018,05,13,16,50,27.10
2018,05,13,16,51,27.10
2018,05,13,16,52,27.10
2018,05,13,16,53,27.10
2018,05,13,16,54,27.10
2018,05,13,16,55,27.10
2018,05,13,16,56,27.10
2018,05,13,16,57,27.10
2018,05,13,16,58,27.10
2018,05,13,16,59,27.00
2018,05,13,17,00,27.00
2018,05,13,17,01,26.90
2018,05,13,17,02,26.90
2018,05,13,17,03,26.90
2018,05,13,17,04,26.90
2018,05,13,17,05,26.90
2018,05,13,17,06,26.80
2018,05,13,17,07,26.80
2018,05,13,17,08,26.80
2018,05,13,17,09,26.70
2018,05,13,17,10,26.70
2018,05,13,17,11,26.70
2018,05,13,17,12,26.70
2018,05,13,17,13,26.70
2018,05,13,17,14,26.70
2018,05,13,17,15,26.70
2018,05,13,17,16,26.70
2018,05,13,17,17,26.60
2018,05,13,17,18,26.60
2018,05,13,17,19,26.60
2018,05,13,17,20,26.60
2018,05,13,17,21,26.60
2018,05,13,17,22,26.60
2018,05,13,17,23,26.60
2018,05,13,17,24,26.60
2018,05,13,17,25,26.60